Time,TemperatureF,DewpointF,PressureIn,WindDirection,WindDirectionDegrees,WindSpeedMPH,WindSpeedGustMPH,Humidity,HourlyPrecipIn,Conditions,Clouds,dailyrainin,SoftwareType,DateUTC
2013-05-13 00:01:00,42.0,39.6,30.19,SW,235,0.0,0.0,91,0.00,,,0.00,Wunderground v.1.15,2013-05-13 05:01:00,
2013-05-13 00:07:00,42.0,39.6,30.19,SW,235,0.0,0.0,91,0.00,,,0.00,Wunderground v.1.15,2013-05-13 05:07:00,
2013-05-13 00:13:00,42.0,39.8,30.19,SW,235,0.0,0.0,92,0.00,,,0.00,Wunderground v.1.15,2013-05-13 05:13:00,
2013-05-13 00:19:00,41.9,39.7,30.19,SW,235,0.0,0.0,92,0.00,,,0.00,Wunderground v.1.15,2013-05-13 05:19:00,
2013-05-13 00:24:00,41.7,39.5,30.19,SW,235,0.0,0.0,92,0.00,,,0.00,Wunderground v.1.15,2013-05-13 05:24:00,
2013-05-13 00:30:00,41.6,39.4,30.19,SW,235,0.0,0.0,92,0.00,,,0.00,Wunderground v.1.15,2013-05-13 05:30:00,
2013-05-13 00:36:00,41.5,39.6,30.19,SW,235,0.0,0.0,93,0.00,,,0.00,Wunderground v.1.15,2013-05-13 05:36:00,
2013-05-13 00:42:00,41.5,39.6,30.19,SW,235,0.0,0.0,93,0.00,,,0.00,Wunderground v.1.15,2013-05-13 05:42:00,
2013-05-13 00:48:00,41.4,39.5,30.19,SW,235,0.0,0.0,93,0.00,,,0.00,Wunderground v.1.15,2013-05-13 05:48:00,
2013-05-13 00:53:00,41.3,39.2,30.19,SW,236,0.0,0.0,92,0.00,,,0.00,Wunderground v.1.15,2013-05-13 05:53:00,
2013-05-13 00:59:00,41.3,39.2,30.19,SW,236,0.0,0.0,92,0.00,,,0.00,Wunderground v.1.15,2013-05-13 05:59:00,
2013-05-13 01:04:00,41.2,39.3,30.19,SW,235,0.0,0.0,93,0.00,,,0.00,Wunderground v.1.15,2013-05-13 06:04:00,
2013-05-13 01:10:00,41.1,39.2,30.19,SW,236,0.0,0.0,93,0.00,,,0.00,Wunderground v.1.15,2013-05-13 06:10:00,
2013-05-13 01:16:00,41.0,39.1,30.19,SW,235,0.0,0.0,93,0.00,,,0.00,Wunderground v.1.15,2013-05-13 06:16:00,
2013-05-13 01:21:00,41.1,39.5,30.19,SW,235,0.0,0.0,94,0.00,,,0.00,Wunderground v.1.15,2013-05-13 06:21:00,
2013-05-13 01:28:00,41.0,39.4,30.19,SW,235,0.0,0.0,94,0.00,,,0.00,Wunderground v.1.15,2013-05-13 06:28:00,
2013-05-13 01:34:00,40.9,39.3,30.19,SW,235,0.0,0.0,94,0.00,,,0.00,Wunderground v.1.15,2013-05-13 06:34:00,
2013-05-13 01:39:00,40.7,39.1,30.19,SW,235,0.0,0.0,94,0.00,,,0.00,Wunderground v.1.15,2013-05-13 06:39:00,
2013-05-13 01:45:00,40.6,39.0,30.19,SW,235,0.0,0.0,94,0.00,,,0.00,Wunderground v.1.15,2013-05-13 06:45:00,
2013-05-13 01:51:00,40.5,38.9,30.19,SW,235,0.0,0.0,94,0.00,,,0.00,Wunderground v.1.15,2013-05-13 06:51:00,
2013-05-13 01:57:00,40.5,39.2,30.19,SW,235,0.0,0.0,95,0.00,,,0.00,Wunderground v.1.15,2013-05-13 06:57:00,
2013-05-13 02:02:00,40.4,38.8,30.19,SW,235,0.0,0.0,94,0.00,,,0.00,Wunderground v.1.15,2013-05-13 07:02:00,
2013-05-13 02:07:00,40.3,39.0,30.19,SW,235,0.0,0.0,95,0.00,,,0.00,Wunderground v.1.15,2013-05-13 07:07:00,
2013-05-13 02:12:00,40.2,38.9,30.19,SW,235,0.0,0.0,95,0.00,,,0.00,Wunderground v.1.15,2013-05-13 07:12:00,
2013-05-13 02:16:00,40.1,38.8,30.19,SW,235,0.0,0.0,95,0.00,,,0.00,Wunderground v.1.15,2013-05-13 07:16:00,
2013-05-13 02:21:00,40.0,38.7,30.19,SW,236,0.0,0.0,95,0.00,,,0.00,Wunderground v.1.15,2013-05-13 07:21:00,
2013-05-13 02:26:00,40.1,38.8,30.19,SW,236,0.0,0.0,95,0.00,,,0.00,Wunderground v.1.15,2013-05-13 07:26:00,
2013-05-13 02:31:00,40.0,38.7,30.19,SW,235,0.0,0.0,95,0.00,,,0.00,Wunderground v.1.15,2013-05-13 07:31:00,
2013-05-13 02:36:00,39.8,38.5,30.19,SW,235,0.0,0.0,95,0.00,,,0.00,Wunderground v.1.15,2013-05-13 07:36:00,
2013-05-13 02:41:00,39.6,38.3,30.19,SW,235,0.0,0.0,95,0.00,,,0.00,Wunderground v.1.15,2013-05-13 07:41:00,
2013-05-13 02:46:00,39.6,38.3,30.19,SW,235,0.0,0.0,95,0.00,,,0.00,Wunderground v.1.15,2013-05-13 07:46:00,
2013-05-13 02:51:00,39.5,38.2,30.19,SW,236,0.0,0.0,95,0.00,,,0.00,Wunderground v.1.15,2013-05-13 07:51:00,
2013-05-13 02:56:00,39.4,38.1,30.19,SW,235,0.0,0.0,95,0.00,,,0.00,Wunderground v.1.15,2013-05-13 07:56:00,
2013-05-13 03:01:00,39.2,37.9,30.19,SW,235,0.0,0.0,95,0.00,,,0.00,Wunderground v.1.15,2013-05-13 08:01:00,
2013-05-13 03:06:00,39.1,37.8,30.19,SW,235,0.0,0.0,95,0.00,,,0.00,Wunderground v.1.15,2013-05-13 08:06:00,
2013-05-13 03:11:00,39.1,38.1,30.19,SW,236,0.0,0.0,96,0.00,,,0.00,Wunderground v.1.15,2013-05-13 08:11:00,
2013-05-13 03:16:00,39.1,37.8,30.19,SW,235,0.0,0.0,95,0.00,,,0.00,Wunderground v.1.15,2013-05-13 08:16:00,
2013-05-13 03:21:00,38.9,37.9,30.19,SW,235,0.0,0.0,96,0.00,,,0.00,Wunderground v.1.15,2013-05-13 08:21:00,
2013-05-13 03:26:00,39.1,38.1,30.20,SW,235,0.0,0.0,96,0.00,,,0.00,Wunderground v.1.15,2013-05-13 08:26:00,
2013-05-13 03:31:00,39.0,38.0,30.20,SW,235,0.0,0.0,96,0.00,,,0.00,Wunderground v.1.15,2013-05-13 08:31:00,
2013-05-13 03:36:00,38.9,37.9,30.20,SW,235,0.0,0.0,96,0.00,,,0.00,Wunderground v.1.15,2013-05-13 08:36:00,
2013-05-13 03:41:00,38.8,37.8,30.20,SW,235,0.0,0.0,96,0.00,,,0.00,Wunderground v.1.15,2013-05-13 08:41:00,
2013-05-13 03:46:00,38.9,37.9,30.20,SW,235,0.0,0.0,96,0.00,,,0.00,Wunderground v.1.15,2013-05-13 08:46:00,
2013-05-13 03:51:00,39.0,38.0,30.19,SW,235,0.0,0.0,96,0.00,,,0.00,Wunderground v.1.15,2013-05-13 08:51:00,
2013-05-13 03:56:00,39.0,38.0,30.20,SW,235,0.0,0.0,96,0.00,,,0.00,Wunderground v.1.15,2013-05-13 08:56:00,
2013-05-13 04:01:00,39.1,38.1,30.20,SW,235,0.0,0.0,96,0.00,,,0.00,Wunderground v.1.15,2013-05-13 09:01:00,
2013-05-13 04:06:00,39.1,38.1,30.20,SW,235,0.0,0.0,96,0.00,,,0.00,Wunderground v.1.15,2013-05-13 09:06:00,
2013-05-13 04:11:00,39.1,38.1,30.20,SW,234,0.0,0.0,96,0.00,,,0.00,Wunderground v.1.15,2013-05-13 09:11:00,
2013-05-13 04:16:00,39.0,38.0,30.20,SW,233,0.0,1.0,96,0.00,,,0.00,Wunderground v.1.15,2013-05-13 09:16:00,
2013-05-13 04:21:00,38.8,37.8,30.20,SW,228,0.0,1.0,96,0.00,,,0.00,Wunderground v.1.15,2013-05-13 09:21:00,
2013-05-13 04:26:00,38.7,37.7,30.20,SW,228,0.0,1.0,96,0.00,,,0.00,Wunderground v.1.15,2013-05-13 09:26:00,
2013-05-13 04:31:00,38.6,37.6,30.20,SW,228,0.0,0.0,96,0.00,,,0.00,Wunderground v.1.15,2013-05-13 09:31:00,
2013-05-13 04:36:00,38.4,37.4,30.20,SW,227,0.0,0.0,96,0.00,,,0.00,Wunderground v.1.15,2013-05-13 09:36:00,
2013-05-13 04:41:00,38.3,37.3,30.20,SW,228,0.0,0.0,96,0.00,,,0.00,Wunderground v.1.15,2013-05-13 09:41:00,
2013-05-13 04:46:00,38.2,37.2,30.20,SW,228,0.0,0.0,96,0.00,,,0.00,Wunderground v.1.15,2013-05-13 09:46:00,
2013-05-13 04:51:00,38.1,37.1,30.20,SW,228,0.0,0.0,96,0.00,,,0.00,Wunderground v.1.15,2013-05-13 09:51:00,
2013-05-13 04:56:00,38.2,37.2,30.20,SW,228,0.0,1.0,96,0.00,,,0.00,Wunderground v.1.15,2013-05-13 09:56:00,
2013-05-13 05:01:00,38.3,37.5,30.20,SW,228,0.0,0.0,97,0.00,,,0.00,Wunderground v.1.15,2013-05-13 10:01:00,
2013-05-13 05:06:00,38.2,37.2,30.20,SW,228,0.0,1.0,96,0.00,,,0.00,Wunderground v.1.15,2013-05-13 10:06:00,
2013-05-13 05:11:00,38.1,37.1,30.21,SW,228,0.0,0.0,96,0.00,,,0.00,Wunderground v.1.15,2013-05-13 10:11:00,
2013-05-13 05:16:00,37.9,36.9,30.21,SW,228,0.0,0.0,96,0.00,,,0.00,Wunderground v.1.15,2013-05-13 10:16:00,
2013-05-13 05:21:00,38.1,37.3,30.21,SW,228,0.0,0.0,97,0.00,,,0.00,Wunderground v.1.15,2013-05-13 10:21:00,
2013-05-13 05:27:00,38.3,37.5,30.21,SW,221,0.0,1.0,97,0.00,,,0.00,Wunderground v.1.15,2013-05-13 10:27:00,
2013-05-13 05:31:00,38.2,37.2,30.21,SW,222,0.0,1.0,96,0.00,,,0.00,Wunderground v.1.15,2013-05-13 10:31:00,
2013-05-13 05:36:00,38.1,37.1,30.21,SW,222,0.0,1.0,96,0.00,,,0.00,Wunderground v.1.15,2013-05-13 10:36:00,
2013-05-13 05:42:00,38.0,37.0,30.21,SW,221,0.0,1.0,96,0.00,,,0.00,Wunderground v.1.15,2013-05-13 10:42:00,
2013-05-13 05:47:00,37.8,36.8,30.21,SW,221,0.0,1.0,96,0.00,,,0.00,Wunderground v.1.15,2013-05-13 10:47:00,
2013-05-13 05:51:00,37.9,36.9,30.21,SW,221,0.0,1.0,96,0.00,,,0.00,Wunderground v.1.15,2013-05-13 10:51:00,
2013-05-13 05:56:00,37.9,36.9,30.22,SW,221,0.0,1.0,96,0.00,,,0.00,Wunderground v.1.15,2013-05-13 10:56:00,
2013-05-13 06:01:00,37.9,36.9,30.22,SW,221,0.0,0.0,96,0.00,,,0.00,Wunderground v.1.15,2013-05-13 11:01:00,
2013-05-13 06:06:00,37.9,36.9,30.22,SW,221,0.0,1.0,96,0.00,,,0.00,Wunderground v.1.15,2013-05-13 11:06:00,
2013-05-13 06:11:00,38.0,37.0,30.22,SW,221,0.0,0.0,96,0.00,,,0.00,Wunderground v.1.15,2013-05-13 11:11:00,
2013-05-13 06:16:00,38.1,37.1,30.22,SW,221,0.0,1.0,96,0.00,,,0.00,Wunderground v.1.15,2013-05-13 11:16:00,
2013-05-13 06:21:00,38.4,37.1,30.22,SW,221,0.0,0.0,95,0.00,,,0.00,Wunderground v.1.15,2013-05-13 11:21:00,
2013-05-13 06:26:00,38.7,37.4,30.22,SW,221,0.0,1.0,95,0.00,,,0.00,Wunderground v.1.15,2013-05-13 11:26:00,
2013-05-13 06:31:00,39.1,37.8,30.22,SW,232,0.0,0.0,95,0.00,,,0.00,Wunderground v.1.15,2013-05-13 11:31:00,
2013-05-13 06:36:00,39.4,38.1,30.22,WSW,238,0.0,1.0,95,0.00,,,0.00,Wunderground v.1.15,2013-05-13 11:36:00,
2013-05-13 06:41:00,39.9,38.3,30.22,WSW,238,0.0,0.0,94,0.00,,,0.00,Wunderground v.1.15,2013-05-13 11:41:00,
2013-05-13 06:46:00,40.3,38.4,30.23,SW,225,1.0,1.0,93,0.00,,,0.00,Wunderground v.1.15,2013-05-13 11:46:00,
2013-05-13 06:52:00,40.6,38.5,30.23,WSW,239,0.0,2.0,92,0.00,,,0.00,Wunderground v.1.15,2013-05-13 11:52:00,
2013-05-13 06:57:00,40.9,38.8,30.23,SW,236,0.0,2.0,92,0.00,,,0.00,Wunderground v.1.15,2013-05-13 11:57:00,
2013-05-13 07:02:00,41.4,39.3,30.23,SW,222,1.0,1.0,92,0.00,,,0.00,Wunderground v.1.15,2013-05-13 12:02:00,
2013-05-13 07:07:00,41.9,39.7,30.23,WSW,238,0.0,1.0,92,0.00,,,0.00,Wunderground v.1.15,2013-05-13 12:07:00,
2013-05-13 07:12:00,42.5,40.1,30.23,WSW,240,0.0,0.0,91,0.00,,,0.00,Wunderground v.1.15,2013-05-13 12:12:00,
2013-05-13 07:17:00,43.2,40.8,30.24,WSW,240,0.0,1.0,91,0.00,,,0.00,Wunderground v.1.15,2013-05-13 12:17:00,
2013-05-13 07:22:00,43.9,41.4,30.24,WSW,239,0.0,1.0,91,0.00,,,0.00,Wunderground v.1.15,2013-05-13 12:22:00,
2013-05-13 07:27:00,44.7,41.7,30.24,SW,221,0.0,2.0,89,0.00,,,0.00,Wunderground v.1.15,2013-05-13 12:27:00,
2013-05-13 07:32:00,45.6,42.0,30.24,SW,221,0.0,1.0,87,0.00,,,0.00,Wunderground v.1.15,2013-05-13 12:32:00,
2013-05-13 07:37:00,46.7,42.7,30.25,SW,221,0.0,1.0,86,0.00,,,0.00,Wunderground v.1.15,2013-05-13 12:37:00,
2013-05-13 07:42:00,47.5,43.2,30.25,SW,221,0.0,0.0,85,0.00,,,0.00,Wunderground v.1.15,2013-05-13 12:42:00,
2013-05-13 07:47:00,49.0,43.7,30.25,SW,218,0.0,2.0,82,0.00,,,0.00,Wunderground v.1.15,2013-05-13 12:47:00,
2013-05-13 07:52:00,49.9,43.6,30.25,SW,219,0.0,1.0,79,0.00,,,0.00,Wunderground v.1.15,2013-05-13 12:52:00,
2013-05-13 07:57:00,50.5,44.6,30.25,SW,220,0.0,1.0,80,0.00,,,0.00,Wunderground v.1.15,2013-05-13 12:57:00,
2013-05-13 08:02:00,51.6,44.3,30.25,SE,132,1.0,1.0,76,0.00,,,0.00,Wunderground v.1.15,2013-05-13 13:02:00,
2013-05-13 08:07:00,52.6,44.5,30.25,SSE,163,0.0,1.0,74,0.00,,,0.00,Wunderground v.1.15,2013-05-13 13:07:00,
2013-05-13 08:12:00,53.0,42.7,30.25,SW,221,0.0,2.0,68,0.00,,,0.00,Wunderground v.1.15,2013-05-13 13:12:00,
2013-05-13 08:17:00,53.1,40.8,30.25,WSW,239,2.0,3.0,63,0.00,,,0.00,Wunderground v.1.15,2013-05-13 13:17:00,
2013-05-13 08:22:00,53.1,42.0,30.25,West,271,0.0,2.0,66,0.00,,,0.00,Wunderground v.1.15,2013-05-13 13:22:00,
2013-05-13 08:27:00,53.7,42.6,30.25,WSW,253,2.0,3.0,66,0.00,,,0.00,Wunderground v.1.15,2013-05-13 13:27:00,
2013-05-13 08:32:00,54.5,44.9,30.25,SW,233,0.0,2.0,70,0.00,,,0.00,Wunderground v.1.15,2013-05-13 13:32:00,
2013-05-13 08:37:00,55.7,43.3,30.25,SW,232,1.0,2.0,63,0.00,,,0.00,Wunderground v.1.15,2013-05-13 13:37:00,
2013-05-13 08:42:00,56.4,44.8,30.25,SSW,210,0.0,1.0,65,0.00,,,0.00,Wunderground v.1.15,2013-05-13 13:42:00,
2013-05-13 08:47:00,57.5,44.6,30.25,SSE,162,2.0,2.0,62,0.00,,,0.00,Wunderground v.1.15,2013-05-13 13:47:00,
2013-05-13 08:52:00,58.3,45.8,30.26,SSE,152,1.0,2.0,63,0.00,,,0.00,Wunderground v.1.15,2013-05-13 13:52:00,
2013-05-13 08:57:00,58.7,45.3,30.26,SW,225,0.0,2.0,61,0.00,,,0.00,Wunderground v.1.15,2013-05-13 13:57:00,
2013-05-13 09:02:00,58.6,43.9,30.26,WNW,287,1.0,2.0,58,0.00,,,0.00,Wunderground v.1.15,2013-05-13 14:02:00,
2013-05-13 09:07:00,58.7,44.0,30.26,WSW,252,1.0,3.0,58,0.00,,,0.00,Wunderground v.1.15,2013-05-13 14:07:00,
2013-05-13 09:12:00,59.1,44.8,30.26,NNW,328,2.0,2.0,59,0.00,,,0.00,Wunderground v.1.15,2013-05-13 14:12:00,
2013-05-13 09:17:00,59.3,41.7,30.26,WSW,256,1.0,2.0,52,0.00,,,0.00,Wunderground v.1.15,2013-05-13 14:17:00,
2013-05-13 09:22:00,59.5,41.9,30.26,WSW,246,1.0,2.0,52,0.00,,,0.00,Wunderground v.1.15,2013-05-13 14:22:00,
2013-05-13 09:27:00,60.1,41.4,30.26,SW,219,3.0,4.0,50,0.00,,,0.00,Wunderground v.1.15,2013-05-13 14:27:00,
2013-05-13 09:32:00,60.7,40.9,30.26,WNW,302,3.0,4.0,48,0.00,,,0.00,Wunderground v.1.15,2013-05-13 14:32:00,
2013-05-13 09:37:00,60.6,38.0,30.26,NNW,346,1.0,6.0,43,0.00,,,0.00,Wunderground v.1.15,2013-05-13 14:37:00,
2013-05-13 09:42:00,60.8,39.3,30.26,NW,304,4.0,5.0,45,0.00,,,0.00,Wunderground v.1.15,2013-05-13 14:42:00,
2013-05-13 09:47:00,60.5,36.7,30.26,NW,318,0.0,5.0,41,0.00,,,0.00,Wunderground v.1.15,2013-05-13 14:47:00,
2013-05-13 09:52:00,61.3,38.0,30.26,East,95,0.0,2.0,42,0.00,,,0.00,Wunderground v.1.15,2013-05-13 14:52:00,
2013-05-13 09:57:00,61.6,37.0,30.26,ESE,103,0.0,4.0,40,0.00,,,0.00,Wunderground v.1.15,2013-05-13 14:57:00,
2013-05-13 10:02:00,61.6,33.7,30.27,NE,49,3.0,5.0,35,0.00,,,0.00,Wunderground v.1.15,2013-05-13 15:02:00,
2013-05-13 10:07:00,61.7,34.5,30.27,NE,37,1.0,5.0,36,0.00,,,0.00,Wunderground v.1.15,2013-05-13 15:07:00,
2013-05-13 10:12:00,62.1,36.2,30.27,NW,311,0.0,3.0,38,0.00,,,0.00,Wunderground v.1.15,2013-05-13 15:12:00,
2013-05-13 10:17:00,62.7,36.7,30.26,WSW,240,1.0,3.0,38,0.00,,,0.00,Wunderground v.1.15,2013-05-13 15:17:00,
2013-05-13 10:22:00,62.6,34.5,30.26,NW,310,6.0,7.0,35,0.00,,,0.00,Wunderground v.1.15,2013-05-13 15:22:00,
2013-05-13 10:27:00,62.2,33.5,30.27,WSW,239,2.0,7.0,34,0.00,,,0.00,Wunderground v.1.15,2013-05-13 15:27:00,
2013-05-13 10:32:00,62.3,34.3,30.27,WNW,300,4.0,5.0,35,0.00,,,0.00,Wunderground v.1.15,2013-05-13 15:32:00,
2013-05-13 10:37:00,62.3,34.3,30.27,NE,39,2.0,7.0,35,0.00,,,0.00,Wunderground v.1.15,2013-05-13 15:37:00,
2013-05-13 10:42:00,62.5,35.2,30.27,NW,311,5.0,7.0,36,0.00,,,0.00,Wunderground v.1.15,2013-05-13 15:42:00,
2013-05-13 10:47:00,62.2,34.2,30.27,East,98,2.0,7.0,35,0.00,,,0.00,Wunderground v.1.15,2013-05-13 15:47:00,
2013-05-13 10:53:00,62.5,35.2,30.27,SSW,198,0.0,3.0,36,0.00,,,0.00,Wunderground v.1.15,2013-05-13 15:53:00,
2013-05-13 10:58:00,62.9,35.5,30.27,WSW,252,0.0,5.0,36,0.00,,,0.00,Wunderground v.1.15,2013-05-13 15:58:00,
2013-05-13 11:03:00,63.3,35.2,30.26,North,349,2.0,4.0,35,0.00,,,0.00,Wunderground v.1.15,2013-05-13 16:03:00,
2013-05-13 11:08:00,63.6,37.5,30.26,NW,316,3.0,6.0,38,0.00,,,0.00,Wunderground v.1.15,2013-05-13 16:08:00,
2013-05-13 11:13:00,63.5,37.4,30.26,WNW,300,1.0,6.0,38,0.00,,,0.00,Wunderground v.1.15,2013-05-13 16:13:00,
2013-05-13 11:18:00,63.7,35.5,30.26,WNW,300,5.0,8.0,35,0.00,,,0.00,Wunderground v.1.15,2013-05-13 16:18:00,
2013-05-13 11:23:00,64.0,33.5,30.26,West,262,6.0,9.0,32,0.00,,,0.00,Wunderground v.1.15,2013-05-13 16:23:00,
2013-05-13 11:28:00,64.3,32.2,30.26,WNW,296,2.0,9.0,30,0.00,,,0.00,Wunderground v.1.15,2013-05-13 16:28:00,
2013-05-13 11:33:00,64.3,32.2,30.26,NE,53,3.0,8.0,30,0.00,,,0.00,Wunderground v.1.15,2013-05-13 16:33:00,
2013-05-13 11:38:00,64.9,36.6,30.26,NNE,20,3.0,8.0,35,0.00,,,0.00,Wunderground v.1.15,2013-05-13 16:38:00,
2013-05-13 11:43:00,65.1,33.7,30.26,NNW,338,3.0,8.0,31,0.00,,,0.00,Wunderground v.1.15,2013-05-13 16:43:00,
2013-05-13 11:48:00,64.8,32.6,30.26,NW,305,0.0,8.0,30,0.00,,,0.00,Wunderground v.1.15,2013-05-13 16:48:00,
2013-05-13 11:53:00,64.8,35.0,30.26,East,84,0.0,6.0,33,0.00,,,0.00,Wunderground v.1.15,2013-05-13 16:53:00,
2013-05-13 11:58:00,65.0,32.8,30.26,West,278,1.0,6.0,30,0.00,,,0.00,Wunderground v.1.15,2013-05-13 16:58:00,
2013-05-13 12:03:00,65.0,35.9,30.25,NNE,29,5.0,8.0,34,0.00,,,0.00,Wunderground v.1.15,2013-05-13 17:03:00,
2013-05-13 12:08:00,65.3,37.6,30.25,NE,44,4.0,8.0,36,0.00,,,0.00,Wunderground v.1.15,2013-05-13 17:08:00,
2013-05-13 12:13:00,65.6,36.5,30.25,NNE,30,6.0,8.0,34,0.00,,,0.00,Wunderground v.1.15,2013-05-13 17:13:00,
2013-05-13 12:18:00,64.9,37.3,30.25,WNW,297,3.0,8.0,36,0.00,,,0.00,Wunderground v.1.15,2013-05-13 17:18:00,
2013-05-13 12:23:00,65.2,34.6,30.25,NE,44,2.0,6.0,32,0.00,,,0.00,Wunderground v.1.15,2013-05-13 17:23:00,
2013-05-13 12:28:00,65.5,36.4,30.25,ENE,63,2.0,8.0,34,0.00,,,0.00,Wunderground v.1.15,2013-05-13 17:28:00,
2013-05-13 12:33:00,66.2,37.7,30.25,NE,44,6.0,6.0,35,0.00,,,0.00,Wunderground v.1.15,2013-05-13 17:33:00,
2013-05-13 12:38:00,66.0,36.1,30.25,East,79,3.0,8.0,33,0.00,,,0.00,Wunderground v.1.15,2013-05-13 17:38:00,
2013-05-13 12:43:00,65.7,39.4,30.24,North,8,2.0,5.0,38,0.00,,,0.00,Wunderground v.1.15,2013-05-13 17:43:00,
2013-05-13 12:48:00,66.5,35.7,30.24,NNW,341,2.0,5.0,32,0.00,,,0.00,Wunderground v.1.15,2013-05-13 17:48:00,
2013-05-13 12:53:00,66.2,34.7,30.24,WNW,283,1.0,5.0,31,0.00,,,0.00,Wunderground v.1.15,2013-05-13 17:53:00,
2013-05-13 12:58:00,66.6,40.2,30.24,North,352,2.0,5.0,38,0.00,,,0.00,Wunderground v.1.15,2013-05-13 17:58:00,
2013-05-13 13:03:00,67.1,35.4,30.23,NE,51,4.0,7.0,31,0.00,,,0.00,Wunderground v.1.15,2013-05-13 18:03:00,
2013-05-13 13:08:00,66.7,35.9,30.23,SE,132,1.0,7.0,32,0.00,,,0.00,Wunderground v.1.15,2013-05-13 18:08:00,
2013-05-13 13:13:00,66.9,34.4,30.23,ESE,104,5.0,10.0,30,0.00,,,0.00,Wunderground v.1.15,2013-05-13 18:13:00,
2013-05-13 13:18:00,66.7,35.9,30.23,WNW,291,0.0,10.0,32,0.00,,,0.00,Wunderground v.1.15,2013-05-13 18:18:00,
2013-05-13 13:23:00,67.5,38.1,30.23,NW,305,3.0,6.0,34,0.00,,,0.00,Wunderground v.1.15,2013-05-13 18:23:00,
2013-05-13 13:28:00,67.2,35.5,30.23,NW,309,2.0,6.0,31,0.00,,,0.00,Wunderground v.1.15,2013-05-13 18:28:00,
2013-05-13 13:33:00,67.2,34.7,30.23,WNW,295,1.0,6.0,30,0.00,,,0.00,Wunderground v.1.15,2013-05-13 18:33:00,
2013-05-13 13:38:00,67.1,34.6,30.23,WNW,288,1.0,9.0,30,0.00,,,0.00,Wunderground v.1.15,2013-05-13 18:38:00,
2013-05-13 13:43:00,66.4,36.4,30.22,West,274,1.0,6.0,33,0.00,,,0.00,Wunderground v.1.15,2013-05-13 18:43:00,
2013-05-13 13:48:00,67.0,36.1,30.22,East,82,2.0,6.0,32,0.00,,,0.00,Wunderground v.1.15,2013-05-13 18:48:00,
2013-05-13 13:53:00,67.5,38.1,30.22,East,100,5.0,6.0,34,0.00,,,0.00,Wunderground v.1.15,2013-05-13 18:53:00,
2013-05-13 13:58:00,68.0,38.6,30.21,North,356,4.0,8.0,34,0.00,,,0.00,Wunderground v.1.15,2013-05-13 18:58:00,
2013-05-13 14:03:00,68.0,37.0,30.21,WNW,287,7.0,9.0,32,0.00,,,0.00,Wunderground v.1.15,2013-05-13 19:03:00,
2013-05-13 14:08:00,67.4,34.0,30.21,WNW,290,1.0,9.0,29,0.00,,,0.00,Wunderground v.1.15,2013-05-13 19:08:00,
2013-05-13 14:13:00,67.8,36.0,30.21,NE,48,3.0,7.0,31,0.00,,,0.00,Wunderground v.1.15,2013-05-13 19:13:00,
2013-05-13 14:18:00,68.1,35.5,30.21,NE,35,4.0,8.0,30,0.00,,,0.00,Wunderground v.1.15,2013-05-13 19:18:00,
2013-05-13 14:23:00,68.1,36.3,30.20,ESE,122,0.0,7.0,31,0.00,,,0.00,Wunderground v.1.15,2013-05-13 19:23:00,
2013-05-13 14:28:00,68.6,37.5,30.20,NNW,347,4.0,7.0,32,0.00,,,0.00,Wunderground v.1.15,2013-05-13 19:28:00,
2013-05-13 14:33:00,68.7,39.2,30.20,NNW,338,2.0,5.0,34,0.00,,,0.00,Wunderground v.1.15,2013-05-13 19:33:00,
2013-05-13 14:38:00,68.7,37.6,30.20,NE,56,4.0,6.0,32,0.00,,,0.00,Wunderground v.1.15,2013-05-13 19:38:00,
2013-05-13 14:43:00,68.8,36.1,30.20,East,79,1.0,6.0,30,0.00,,,0.00,Wunderground v.1.15,2013-05-13 19:43:00,
2013-05-13 14:48:00,68.8,38.5,30.19,North,4,2.0,6.0,33,0.00,,,0.00,Wunderground v.1.15,2013-05-13 19:48:00,
2013-05-13 14:53:00,69.2,36.4,30.19,NE,40,1.0,5.0,30,0.00,,,0.00,Wunderground v.1.15,2013-05-13 19:53:00,
2013-05-13 14:58:00,69.5,39.1,30.19,NW,325,1.0,6.0,33,0.00,,,0.00,Wunderground v.1.15,2013-05-13 19:58:00,
2013-05-13 15:03:00,69.6,38.4,30.19,NE,34,7.0,7.0,32,0.00,,,0.00,Wunderground v.1.15,2013-05-13 20:03:00,
2013-05-13 15:08:00,69.3,37.3,30.19,NW,315,3.0,7.0,31,0.00,,,0.00,Wunderground v.1.15,2013-05-13 20:08:00,
2013-05-13 15:13:00,69.4,39.0,30.18,NW,314,3.0,5.0,33,0.00,,,0.00,Wunderground v.1.15,2013-05-13 20:13:00,
2013-05-13 15:18:00,69.6,42.2,30.18,NW,309,4.0,5.0,37,0.00,,,0.00,Wunderground v.1.15,2013-05-13 20:18:00,
2013-05-13 15:23:00,70.0,38.0,30.18,East,90,0.0,2.0,31,0.00,,,0.00,Wunderground v.1.15,2013-05-13 20:23:00,
2013-05-13 15:28:00,70.6,38.5,30.18,WNW,301,4.0,4.0,31,0.00,,,0.00,Wunderground v.1.15,2013-05-13 20:28:00,
2013-05-13 15:33:00,69.8,36.9,30.17,WNW,297,2.0,5.0,30,0.00,,,0.00,Wunderground v.1.15,2013-05-13 20:33:00,
2013-05-13 15:38:00,69.4,37.4,30.17,NNW,339,3.0,5.0,31,0.00,,,0.00,Wunderground v.1.15,2013-05-13 20:38:00,
2013-05-13 15:43:00,69.7,39.3,30.17,SE,131,1.0,4.0,33,0.00,,,0.00,Wunderground v.1.15,2013-05-13 20:43:00,
2013-05-13 15:48:00,70.2,38.9,30.17,NE,44,2.0,4.0,32,0.00,,,0.00,Wunderground v.1.15,2013-05-13 20:48:00,
2013-05-13 15:53:00,70.1,38.9,30.17,WNW,297,2.0,5.0,32,0.00,,,0.00,Wunderground v.1.15,2013-05-13 20:53:00,
2013-05-13 15:58:00,70.0,38.0,30.16,NNE,25,4.0,6.0,31,0.00,,,0.00,Wunderground v.1.15,2013-05-13 20:58:00,
2013-05-13 16:03:00,70.4,40.7,30.17,NE,53,3.0,4.0,34,0.00,,,0.00,Wunderground v.1.15,2013-05-13 21:03:00,
2013-05-13 16:08:00,70.2,38.1,30.16,ENE,72,1.0,7.0,31,0.00,,,0.00,Wunderground v.1.15,2013-05-13 21:08:00,
2013-05-13 16:13:00,70.5,40.0,30.16,East,92,0.0,4.0,33,0.00,,,0.00,Wunderground v.1.15,2013-05-13 21:13:00,
2013-05-13 16:18:00,70.8,37.8,30.16,NNE,29,0.0,4.0,30,0.00,,,0.00,Wunderground v.1.15,2013-05-13 21:18:00,
2013-05-13 16:23:00,71.0,38.8,30.16,WNW,288,3.0,4.0,31,0.00,,,0.00,Wunderground v.1.15,2013-05-13 21:23:00,
2013-05-13 16:28:00,70.6,38.5,30.16,WNW,291,2.0,6.0,31,0.00,,,0.00,Wunderground v.1.15,2013-05-13 21:28:00,
2013-05-13 16:33:00,70.2,37.3,30.16,WNW,295,3.0,6.0,30,0.00,,,0.00,Wunderground v.1.15,2013-05-13 21:33:00,
2013-05-13 16:38:00,70.4,37.5,30.16,WNW,296,0.0,6.0,30,0.00,,,0.00,Wunderground v.1.15,2013-05-13 21:38:00,
2013-05-13 16:44:00,71.0,37.1,30.16,ENE,60,0.0,3.0,29,0.00,,,0.00,Wunderground v.1.15,2013-05-13 21:44:00,
2013-05-13 16:49:00,71.3,39.9,30.16,NE,50,0.0,3.0,32,0.00,,,0.00,Wunderground v.1.15,2013-05-13 21:49:00,
2013-05-13 16:54:00,71.2,37.3,30.16,NNW,328,5.0,5.0,29,0.00,,,0.00,Wunderground v.1.15,2013-05-13 21:54:00,
2013-05-13 16:59:00,71.1,38.9,30.15,SW,217,2.0,6.0,31,0.00,,,0.00,Wunderground v.1.15,2013-05-13 21:59:00,
2013-05-13 17:04:00,70.9,37.9,30.15,WNW,300,3.0,6.0,30,0.00,,,0.00,Wunderground v.1.15,2013-05-13 22:04:00,
2013-05-13 17:09:00,70.6,38.5,30.15,WNW,293,1.0,6.0,31,0.00,,,0.00,Wunderground v.1.15,2013-05-13 22:09:00,
2013-05-13 17:14:00,70.7,39.4,30.15,WNW,300,1.0,4.0,32,0.00,,,0.00,Wunderground v.1.15,2013-05-13 22:14:00,
2013-05-13 17:19:00,70.6,39.3,30.15,WNW,282,4.0,8.0,32,0.00,,,0.00,Wunderground v.1.15,2013-05-13 22:19:00,
2013-05-13 17:24:00,70.4,37.5,30.15,NW,314,6.0,9.0,30,0.00,,,0.00,Wunderground v.1.15,2013-05-13 22:24:00,
2013-05-13 17:29:00,70.3,38.2,30.15,WNW,298,3.0,9.0,31,0.00,,,0.00,Wunderground v.1.15,2013-05-13 22:29:00,
2013-05-13 17:34:00,70.3,39.8,30.14,WNW,291,5.0,8.0,33,0.00,,,0.00,Wunderground v.1.15,2013-05-13 22:34:00,
2013-05-13 17:39:00,70.0,39.6,30.14,NW,311,5.0,8.0,33,0.00,,,0.00,Wunderground v.1.15,2013-05-13 22:39:00,
2013-05-13 17:44:00,70.2,39.7,30.14,NW,304,3.0,4.0,33,0.00,,,0.00,Wunderground v.1.15,2013-05-13 22:44:00,
2013-05-13 17:49:00,70.4,38.3,30.14,WNW,298,2.0,4.0,31,0.00,,,0.00,Wunderground v.1.15,2013-05-13 22:49:00,
2013-05-13 17:54:00,70.5,37.6,30.14,West,280,2.0,3.0,30,0.00,,,0.00,Wunderground v.1.15,2013-05-13 22:54:00,
2013-05-13 17:59:00,70.5,40.8,30.14,WNW,296,3.0,5.0,34,0.00,,,0.00,Wunderground v.1.15,2013-05-13 22:59:00,
2013-05-13 18:04:00,70.5,40.8,30.14,WNW,298,6.0,6.0,34,0.00,,,0.00,Wunderground v.1.15,2013-05-13 23:04:00,
2013-05-13 18:09:00,70.5,40.0,30.14,West,276,5.0,7.0,33,0.00,,,0.00,Wunderground v.1.15,2013-05-13 23:09:00,
2013-05-13 18:14:00,70.2,38.9,30.14,WNW,290,3.0,6.0,32,0.00,,,0.00,Wunderground v.1.15,2013-05-13 23:14:00,
2013-05-13 18:19:00,70.3,39.0,30.14,WNW,290,3.0,6.0,32,0.00,,,0.00,Wunderground v.1.15,2013-05-13 23:19:00,
2013-05-13 18:24:00,70.5,40.0,30.14,NW,307,3.0,4.0,33,0.00,,,0.00,Wunderground v.1.15,2013-05-13 23:24:00,
2013-05-13 18:29:00,70.5,40.8,30.14,NW,315,3.0,4.0,34,0.00,,,0.00,Wunderground v.1.15,2013-05-13 23:29:00,
2013-05-13 18:34:00,70.2,39.7,30.14,WNW,294,3.0,4.0,33,0.00,,,0.00,Wunderground v.1.15,2013-05-13 23:34:00,
2013-05-13 18:39:00,69.8,40.2,30.14,WNW,295,3.0,5.0,34,0.00,,,0.00,Wunderground v.1.15,2013-05-13 23:39:00,
2013-05-13 18:44:00,69.8,40.2,30.14,NW,304,3.0,4.0,34,0.00,,,0.00,Wunderground v.1.15,2013-05-13 23:44:00,
2013-05-13 18:49:00,69.7,41.5,30.14,WNW,290,1.0,4.0,36,0.00,,,0.00,Wunderground v.1.15,2013-05-13 23:49:00,
2013-05-13 18:54:00,69.4,41.3,30.14,WNW,297,2.0,6.0,36,0.00,,,0.00,Wunderground v.1.15,2013-05-13 23:54:00,
2013-05-13 18:59:00,69.2,40.4,30.14,West,262,2.0,6.0,35,0.00,,,0.00,Wunderground v.1.15,2013-05-13 23:59:00,
2013-05-13 19:04:00,69.0,40.9,30.14,NW,309,5.0,5.0,36,0.00,,,0.00,Wunderground v.1.15,2013-05-14 00:04:00,
2013-05-13 19:09:00,68.9,41.5,30.15,WNW,295,1.0,5.0,37,0.00,,,0.00,Wunderground v.1.15,2013-05-14 00:09:00,
2013-05-13 19:14:00,68.8,40.7,30.15,WNW,292,1.0,3.0,36,0.00,,,0.00,Wunderground v.1.15,2013-05-14 00:14:00,
2013-05-13 19:19:00,68.7,40.7,30.14,West,276,0.0,3.0,36,0.00,,,0.00,Wunderground v.1.15,2013-05-14 00:19:00,
2013-05-13 19:24:00,68.8,41.5,30.14,West,276,0.0,1.0,37,0.00,,,0.00,Wunderground v.1.15,2013-05-14 00:24:00,
2013-05-13 19:29:00,68.3,41.7,30.14,WSW,252,1.0,1.0,38,0.00,,,0.00,Wunderground v.1.15,2013-05-14 00:29:00,
2013-05-13 19:34:00,67.5,41.0,30.14,WSW,245,0.0,1.0,38,0.00,,,0.00,Wunderground v.1.15,2013-05-14 00:34:00,
2013-05-13 19:39:00,66.9,41.8,30.14,WSW,245,0.0,1.0,40,0.00,,,0.00,Wunderground v.1.15,2013-05-14 00:39:00,
2013-05-13 19:44:00,65.8,42.7,30.14,WSW,245,0.0,1.0,43,0.00,,,0.00,Wunderground v.1.15,2013-05-14 00:44:00,
2013-05-13 19:49:00,64.6,44.5,30.14,WSW,245,0.0,1.0,48,0.00,,,0.00,Wunderground v.1.15,2013-05-14 00:49:00,
2013-05-13 19:54:00,63.8,43.2,30.14,WSW,245,0.0,0.0,47,0.00,,,0.00,Wunderground v.1.15,2013-05-14 00:54:00,
2013-05-13 19:59:00,62.8,42.8,30.14,WSW,243,0.0,1.0,48,0.00,,,0.00,Wunderground v.1.15,2013-05-14 00:59:00,
2013-05-13 20:04:00,61.8,43.0,30.14,WSW,243,0.0,0.0,50,0.00,,,0.00,Wunderground v.1.15,2013-05-14 01:04:00,
2013-05-13 20:09:00,60.9,42.1,30.15,WSW,243,0.0,0.0,50,0.00,,,0.00,Wunderground v.1.15,2013-05-14 01:09:00,
2013-05-13 20:14:00,60.2,43.0,30.15,WSW,243,0.0,0.0,53,0.00,,,0.00,Wunderground v.1.15,2013-05-14 01:14:00,
2013-05-13 20:19:00,59.5,43.8,30.15,WSW,243,0.0,0.0,56,0.00,,,0.00,Wunderground v.1.15,2013-05-14 01:19:00,
2013-05-13 20:24:00,59.2,43.0,30.15,WSW,243,0.0,0.0,55,0.00,,,0.00,Wunderground v.1.15,2013-05-14 01:24:00,
2013-05-13 20:29:00,58.8,43.1,30.15,WSW,243,0.0,0.0,56,0.00,,,0.00,Wunderground v.1.15,2013-05-14 01:29:00,
2013-05-13 20:34:00,58.6,43.9,30.15,WSW,243,0.0,0.0,58,0.00,,,0.00,Wunderground v.1.15,2013-05-14 01:34:00,
2013-05-13 20:39:00,58.3,44.0,30.15,WSW,243,0.0,0.0,59,0.00,,,0.00,Wunderground v.1.15,2013-05-14 01:39:00,
2013-05-13 20:44:00,57.8,43.1,30.15,WSW,243,0.0,0.0,58,0.00,,,0.00,Wunderground v.1.15,2013-05-14 01:44:00,
2013-05-13 20:49:00,57.5,43.3,30.15,WSW,243,0.0,0.0,59,0.00,,,0.00,Wunderground v.1.15,2013-05-14 01:49:00,
2013-05-13 20:54:00,57.0,43.2,30.15,WSW,244,0.0,0.0,60,0.00,,,0.00,Wunderground v.1.15,2013-05-14 01:54:00,
2013-05-13 20:59:00,56.5,43.6,30.15,WSW,243,0.0,0.0,62,0.00,,,0.00,Wunderground v.1.15,2013-05-14 01:59:00,
2013-05-13 21:04:00,56.1,43.3,30.15,WSW,243,0.0,0.0,62,0.00,,,0.00,Wunderground v.1.15,2013-05-14 02:04:00,
2013-05-13 21:09:00,55.7,42.9,30.15,WSW,244,0.0,0.0,62,0.00,,,0.00,Wunderground v.1.15,2013-05-14 02:09:00,
2013-05-13 21:14:00,55.3,43.3,30.15,WSW,243,0.0,0.0,64,0.00,,,0.00,Wunderground v.1.15,2013-05-14 02:14:00,
2013-05-13 21:19:00,55.1,43.5,30.15,WSW,243,0.0,0.0,65,0.00,,,0.00,Wunderground v.1.15,2013-05-14 02:19:00,
2013-05-13 21:24:00,55.0,43.4,30.15,WSW,243,0.0,0.0,65,0.00,,,0.00,Wunderground v.1.15,2013-05-14 02:24:00,
2013-05-13 21:29:00,54.8,44.0,30.16,WSW,243,0.0,0.0,67,0.00,,,0.00,Wunderground v.1.15,2013-05-14 02:29:00,
2013-05-13 21:34:00,54.6,43.5,30.16,WSW,244,0.0,0.0,66,0.00,,,0.00,Wunderground v.1.15,2013-05-14 02:34:00,
2013-05-13 21:39:00,54.3,43.2,30.16,WSW,243,0.0,0.0,66,0.00,,,0.00,Wunderground v.1.15,2013-05-14 02:39:00,
2013-05-13 21:44:00,54.1,43.4,30.16,WSW,243,0.0,0.0,67,0.00,,,0.00,Wunderground v.1.15,2013-05-14 02:44:00,
2013-05-13 21:49:00,53.9,43.2,30.16,WSW,243,0.0,1.0,67,0.00,,,0.00,Wunderground v.1.15,2013-05-14 02:49:00,
2013-05-13 21:54:00,53.7,43.0,30.16,WSW,243,0.0,0.0,67,0.00,,,0.00,Wunderground v.1.15,2013-05-14 02:54:00,
2013-05-13 21:59:00,53.9,43.6,30.16,SSW,204,0.0,1.0,68,0.00,,,0.00,Wunderground v.1.15,2013-05-14 02:59:00,
2013-05-13 22:04:00,53.9,43.6,30.16,SSW,204,0.0,0.0,68,0.00,,,0.00,Wunderground v.1.15,2013-05-14 03:04:00,
2013-05-13 22:09:00,53.7,44.1,30.16,SSW,204,0.0,0.0,70,0.00,,,0.00,Wunderground v.1.15,2013-05-14 03:09:00,
2013-05-13 22:14:00,53.4,43.9,30.16,SSW,204,0.0,0.0,70,0.00,,,0.00,Wunderground v.1.15,2013-05-14 03:14:00,
2013-05-13 22:19:00,53.1,43.2,30.15,SSW,204,0.0,0.0,69,0.00,,,0.00,Wunderground v.1.15,2013-05-14 03:19:00,
2013-05-13 22:24:00,53.0,43.5,30.15,SSW,205,0.0,0.0,70,0.00,,,0.00,Wunderground v.1.15,2013-05-14 03:24:00,
2013-05-13 22:29:00,52.8,43.7,30.15,SW,219,0.0,1.0,71,0.00,,,0.00,Wunderground v.1.15,2013-05-14 03:29:00,
2013-05-13 22:34:00,52.8,43.7,30.15,SW,219,0.0,1.0,71,0.00,,,0.00,Wunderground v.1.15,2013-05-14 03:34:00,
2013-05-13 22:39:00,52.7,43.2,30.15,SW,219,0.0,1.0,70,0.00,,,0.00,Wunderground v.1.15,2013-05-14 03:39:00,
2013-05-13 22:44:00,52.6,43.5,30.15,SW,221,0.0,1.0,71,0.00,,,0.00,Wunderground v.1.15,2013-05-14 03:44:00,
2013-05-13 22:49:00,52.6,43.5,30.15,SW,228,0.0,1.0,71,0.00,,,0.00,Wunderground v.1.15,2013-05-14 03:49:00,
2013-05-13 22:54:00,52.9,43.7,30.15,SW,228,0.0,0.0,71,0.00,,,0.00,Wunderground v.1.15,2013-05-14 03:54:00,
2013-05-13 22:59:00,53.0,43.5,30.15,SW,228,0.0,0.0,70,0.00,,,0.00,Wunderground v.1.15,2013-05-14 03:59:00,
2013-05-13 23:01:00,53.0,43.8,30.15,SW,226,0.0,1.0,71,0.00,,,0.00,Wunderground v.1.15,2013-05-14 04:01:00,
2013-05-13 23:06:00,53.2,43.7,30.14,SW,225,0.0,1.0,70,0.00,,,0.00,Wunderground v.1.15,2013-05-14 04:06:00,
2013-05-13 23:11:00,53.7,43.8,30.14,SSW,198,0.0,0.0,69,0.00,,,0.00,Wunderground v.1.15,2013-05-14 04:11:00,
2013-05-13 23:16:00,54.0,44.4,30.14,SW,217,0.0,1.0,70,0.00,,,0.00,Wunderground v.1.15,2013-05-14 04:16:00,
2013-05-13 23:21:00,53.9,44.3,30.14,SSE,150,0.0,1.0,70,0.00,,,0.00,Wunderground v.1.15,2013-05-14 04:21:00,
2013-05-13 23:26:00,53.9,44.0,30.14,SE,142,1.0,1.0,69,0.00,,,0.00,Wunderground v.1.15,2013-05-14 04:26:00,
2013-05-13 23:31:00,54.0,44.1,30.14,SE,141,0.0,1.0,69,0.00,,,0.00,Wunderground v.1.15,2013-05-14 04:31:00,
2013-05-13 23:36:00,53.7,44.5,30.13,South,169,0.0,1.0,71,0.00,,,0.00,Wunderground v.1.15,2013-05-14 04:36:00,
2013-05-13 23:41:00,53.2,44.4,30.14,South,169,0.0,0.0,72,0.00,,,0.00,Wunderground v.1.15,2013-05-14 04:41:00,
2013-05-13 23:46:00,52.9,44.1,30.13,South,169,0.0,0.0,72,0.00,,,0.00,Wunderground v.1.15,2013-05-14 04:46:00,
2013-05-13 23:51:00,53.0,43.8,30.13,SW,233,0.0,0.0,71,0.00,,,0.00,Wunderground v.1.15,2013-05-14 04:51:00,
2013-05-13 23:56:00,53.0,44.6,30.13,SSW,208,0.0,1.0,73,0.00,,,0.00,Wunderground v.1.15,2013-05-14 04:56:00,